Tracking 35331 objects as of 16-Sep-2026
HD Live streaming from Space Station
objects crossing your sky now

STARLINK-33912

Track STARLINK-33912 now!
10-day predictions
STARLINK-33912 is classified as:


NORAD ID: 64107
Int'l Code: 2025-110M
Launch date: May 23, 2025
Source: United States (US)
Launch site: AIR FORCE WESTERN TEST RANGE (AFWTR)
Your satellite tracking list
Your tracking list is empty




NASA's NSSDC Master Catalog

Two Line Element Set (TLE):
1 64107U 25110M   26258.89593037  .00023242  00000-0  75803-3 0  9993
2 64107  53.1595 221.8740 0001879  92.5789 267.5428 15.31714596 75027
Source of the keplerian elements: AFSPC